Oakes, ND

10:29 PM CST on February 19, 2018 (GMT -0600)
Oakes

Weather History for K2D5 - February, 2013

Change the Weather History Date:

Thursday, February 21, 2013

  Actual Average (KP67) Record (KP67)
Temperature  
Mean Temperature 6 °F -  
Max Temperature 12 °F 28 °F 35 °F (1998)
Min Temperature 0 °F 13 °F 8 °F (1997)
Degree Days  
Heating Degree Days 59    
Moisture  
Dew Point 3 °F    
Average Humidity 86    
Maximum Humidity 92    
Minimum Humidity 78    
Precipitation  
Precipitation 0.00 in - - ()
Sea Level Pressure  
Sea Level Pressure 30.22 in    
Wind  
Wind Speed 10 mph (ENE)    
Max Wind Speed 17 mph    
Max Gust Speed -    
Averages and records for this station are not official NWS values.
T = Trace of Precipitation, MM = Missing Value Source: NWS Daily Summary

Daily Weather History Graph

Daily Weather History Graph

Search for Another Location

Airport or City:

Trip Planner

Search our weather history database for the weather conditions in past years. The results will help you decide how hot, cold, wet, or windy it might be!

Date:

Astronomy

Feb. 21, 2013 Rise Set
Actual Time 7:24 AM CST 6:07 PM CST
Civil Twilight 6:54 AM CST 6:38 PM CST
Nautical Twilight 6:19 AM CST 7:12 PM CST
Astronomical Twilight 5:45 AM CST 7:47 PM CST
Moon 2:15 PM CST (2/21) 4:39 AM CST (2/21)
Length of Visible Light 11h 43m
Length of Day
10h 42m
Waxing Gibbous, 84% of the Moon is Illuminated
Feb 21
Waxing Gibbous
Feb 25
Full
Mar 4
Last Quarter
Mar 11
New
Mar 19
First Quarter

Hourly Weather History & Observations

Time (CST) Temp. Windchill Dew Point Humidity Pressure Visibility Wind Dir Wind Speed Gust Speed Precip Events Conditions
12:15 AM -0.4 °F -15.7 °F -4.0 °F 85% 30.27 in - East 9.2 mph - N/A   Unknown
12:35 AM 1.4 °F -13.5 °F -2.2 °F 85% 30.27 in - East 9.2 mph - N/A   Unknown
12:55 AM 1.4 °F -11.3 °F -2.2 °F 85% 30.27 in - East 6.9 mph - N/A   Unknown
1:15 AM 1.4 °F -11.3 °F -0.4 °F 92% 30.28 in - East 6.9 mph - N/A   Unknown
1:35 AM 3.2 °F -11.3 °F -0.4 °F 85% 30.27 in - East 9.2 mph - N/A   Unknown
1:55 AM 5.0 °F -5.6 °F -0.4 °F 78% 30.28 in - East 5.8 mph - N/A   Unknown
2:15 AM 5.0 °F -6.9 °F -0.4 °F 78% 30.28 in - East 6.9 mph - N/A   Unknown
2:35 AM 5.0 °F -6.9 °F -0.4 °F 78% 30.28 in - East 6.9 mph - N/A   Unknown
2:55 AM 3.2 °F -7.8 °F -0.4 °F 85% 30.28 in - ESE 5.8 mph - N/A   Unknown
3:15 AM 3.2 °F -9.1 °F -0.4 °F 85% 30.28 in - SE 6.9 mph - N/A   Unknown
3:35 AM 3.2 °F -11.3 °F -0.4 °F 85% 30.27 in - East 9.2 mph - N/A   Unknown
3:55 AM 1.4 °F -14.5 °F -0.4 °F 92% 30.26 in - East 10.4 mph - N/A   Unknown
4:15 AM 1.4 °F -14.5 °F -2.2 °F 85% 30.26 in - East 10.4 mph - N/A   Unknown
4:35 AM -0.4 °F -14.7 °F -2.2 °F 92% 30.25 in - East 8.1 mph - N/A   Unknown
4:55 AM -0.4 °F -14.7 °F -4.0 °F 85% 30.24 in - ENE 8.1 mph - N/A   Unknown
5:15 AM -0.4 °F -15.7 °F -2.2 °F 92% 30.23 in - ENE 9.2 mph - N/A   Unknown
5:55 AM -0.4 °F -12.0 °F -2.2 °F 92% 30.23 in - ENE 5.8 mph - N/A   Unknown
6:15 AM -0.4 °F -15.7 °F -2.2 °F 92% 30.23 in - ENE 9.2 mph - N/A   Unknown
6:35 AM 1.4 °F -17.6 °F -0.4 °F 92% 30.23 in - East 15.0 mph - N/A   Unknown
6:55 AM 1.4 °F -16.9 °F -2.2 °F 85% 30.25 in - East 13.8 mph - N/A   Unknown
7:15 AM 1.4 °F -18.2 °F -0.4 °F 92% 30.26 in - East 16.1 mph - N/A   Unknown
7:35 AM 3.2 °F -16.5 °F -0.4 °F 85% 30.28 in - ESE 17.3 mph - N/A   Unknown
7:55 AM 3.2 °F -15.9 °F -0.4 °F 85% 30.29 in - ESE 16.1 mph - N/A   Unknown
8:15 AM 5.0 °F -13.0 °F -0.4 °F 78% 30.29 in - ESE 15.0 mph - N/A   Unknown
8:35 AM 5.0 °F -10.8 °F 1.4 °F 85% 30.29 in - East 11.5 mph - N/A   Unknown
8:55 AM 5.0 °F -11.6 °F 1.4 °F 85% 30.26 in - East 12.7 mph - N/A   Unknown
9:15 AM 5.0 °F -10.8 °F -0.4 °F 78% 30.25 in - ENE 11.5 mph - N/A   Unknown
9:35 AM 5.0 °F -13.0 °F -0.4 °F 78% 30.25 in - ENE 15.0 mph - N/A   Unknown
9:55 AM 5.0 °F -10.8 °F -0.4 °F 78% 30.26 in - ENE 11.5 mph - N/A   Unknown
10:15 AM 5.0 °F -10.0 °F 1.4 °F 85% 30.26 in - ENE 10.4 mph - N/A   Unknown
10:35 AM 6.8 °F -9.3 °F 1.4 °F 79% 30.27 in - East 12.7 mph - N/A   Unknown
10:55 AM 6.8 °F -10.0 °F 1.4 °F 79% 30.28 in - East 13.8 mph - N/A   Unknown
11:15 AM 6.8 °F -10.0 °F 1.4 °F 79% 30.28 in - East 13.8 mph - N/A   Unknown
11:35 AM 6.8 °F -10.7 °F 1.4 °F 79% 30.28 in - East 15.0 mph - N/A   Unknown
11:55 AM 8.6 °F -6.3 °F 5.0 °F 85% 30.27 in - East 11.5 mph - N/A   Unknown
12:15 PM 8.6 °F -7.7 °F 5.0 °F 85% 30.26 in - East 13.8 mph - N/A   Unknown
12:35 PM 8.6 °F -7.7 °F 5.0 °F 85% 30.25 in - East 13.8 mph - N/A   Unknown
12:55 PM 8.6 °F -7.0 °F 5.0 °F 85% 30.25 in - East 12.7 mph - N/A   Unknown
1:15 PM 10.4 °F -4.8 °F 6.8 °F 85% 30.23 in - East 12.7 mph - N/A   Unknown
1:35 PM 10.4 °F -3.3 °F 6.8 °F 85% 30.23 in - East 10.4 mph - N/A   Unknown
1:55 PM 10.4 °F -3.3 °F 8.6 °F 92% 30.22 in - East 10.4 mph - N/A   Unknown
2:15 PM 12.2 °F -1.8 °F 8.6 °F 85% 30.21 in - ENE 11.5 mph - N/A   Unknown
2:35 PM 12.2 °F -1.8 °F 8.6 °F 85% 30.20 in - ENE 11.5 mph - N/A   Unknown
2:55 PM 12.2 °F -1.8 °F 8.6 °F 85% 30.20 in - ENE 11.5 mph - N/A   Unknown
3:15 PM 10.4 °F -4.1 °F 8.6 °F 92% 30.20 in - East 11.5 mph - N/A   Unknown
3:35 PM 12.2 °F -3.1 °F 8.6 °F 85% 30.19 in - ENE 13.8 mph - N/A   Unknown
3:55 PM 10.4 °F -4.8 °F 8.6 °F 92% 30.19 in - ENE 12.7 mph - N/A   Unknown
4:15 PM 10.4 °F -5.4 °F 6.8 °F 85% 30.19 in - ENE 13.8 mph - N/A   Unknown
4:35 PM 10.4 °F -4.8 °F 6.8 °F 85% 30.18 in - ENE 12.7 mph - N/A   Unknown
4:55 PM 10.4 °F -3.3 °F 6.8 °F 85% 30.19 in - ENE 10.4 mph - N/A   Unknown
5:15 PM 10.4 °F -3.3 °F 6.8 °F 85% 30.20 in - ENE 10.4 mph - N/A   Unknown
5:35 PM 10.4 °F -0.4 °F 6.8 °F 85% 30.21 in - ENE 6.9 mph - N/A   Unknown
5:55 PM 10.4 °F -0.4 °F 6.8 °F 85% 30.21 in - ENE 6.9 mph - N/A   Unknown
6:15 PM 8.6 °F -3.7 °F 6.8 °F 92% 30.20 in - ENE 8.1 mph - N/A   Unknown
6:35 PM 8.6 °F -4.7 °F 6.8 °F 92% 30.19 in - NE 9.2 mph - N/A   Unknown
6:55 PM 8.6 °F -1.3 °F 5.0 °F 85% 30.19 in - NE 5.8 mph - N/A   Unknown
7:15 PM 6.8 °F -2.0 °F 5.0 °F 92% 30.18 in - NE 4.6 mph - N/A   Unknown
7:35 PM 6.8 °F -3.5 °F 5.0 °F 92% 30.18 in - North 5.8 mph - N/A   Unknown
7:55 PM 6.8 °F -3.5 °F 5.0 °F 92% 30.18 in - NNE 5.8 mph - N/A   Unknown
8:15 PM 8.6 °F -2.6 °F 5.0 °F 85% 30.17 in - NNE 6.9 mph - N/A   Unknown
8:35 PM 8.6 °F -2.6 °F 6.8 °F 92% 30.16 in - NNE 6.9 mph - N/A   Unknown
8:55 PM 8.6 °F -2.6 °F 6.8 °F 92% 30.16 in - NNE 6.9 mph - N/A   Unknown
9:15 PM 8.6 °F -2.6 °F 6.8 °F 92% 30.16 in - NNE 6.9 mph - N/A   Unknown
9:35 PM 10.4 °F -2.4 °F 6.8 °F 85% 30.15 in - NNE 9.2 mph - N/A   Unknown
9:55 PM 10.4 °F -2.4 °F 6.8 °F 85% 30.15 in - NNE 9.2 mph - N/A   Unknown
10:15 PM 10.4 °F -3.3 °F 6.8 °F 85% 30.14 in - NNE 10.4 mph - N/A   Unknown
10:35 PM 10.4 °F -1.5 °F 6.8 °F 85% 30.13 in - NNE 8.1 mph - N/A   Unknown
10:55 PM 10.4 °F -0.4 °F 6.8 °F 85% 30.13 in - NNE 6.9 mph - N/A   Unknown
11:15 PM 10.4 °F -1.5 °F 6.8 °F 85% 30.12 in - NNE 8.1 mph - N/A   Unknown
11:35 PM 10.4 °F -1.5 °F 6.8 °F 85% 30.11 in - North 8.1 mph - N/A   Unknown
11:55 PM 10.4 °F -1.5 °F 6.8 °F 85% 30.11 in - North 8.1 mph - N/A   Unknown